Location: Hastringsfeld
(50.9620°N, 10.4787°E)
Time: 03:55:56
(UTC+00:00)

NOSS 2-2 (E) - Pass Details

Date: 26 September 2023
Orbit: 408 x 1757 km, 63.3° (Epoch: 29 November)

Event Time Altitude Azimuth Distance (km) Brightness Sun altitude
Exits shadow 02:58:42 40° 280° (W) 1,099 4.4 -20.8°
Maximum altitude 03:00:09 53° 231° (SW) 983 4.1 -20.6°
Drops below altitude 10° 03:06:26 10° 157° (SSE) 2,851 6.9 -19.7°
Sets 03:09:38 0° 154° (SSE) 4,041 7.8 -19.3°
